Lid_Strength_Index
3 3 2 1 1 1 1 2 1 1 1 1 1 1 1 1 1 3 5 3 4 7 7 5 5 7 7 9 12 10 12 11 11 15 14 13 15 13 13 12 13 14 15 16 15 17 18 7 8 12 10 8 7 8
3 2 2 2 1 1 1 2 2 1 1 1 1 1 1 1 1 2 7 3 2 5 7 5 5 4 4 6 9 10 11 10 9 11 12 11 13 14 14 17 9 15 12 14 13 14 9 7 9 7 7 8 7 8
2 2 2 2 2 1 2 2 2 2 2 1 1 2 2 2 2 3 6 5 6 8 8 8 8 5 4 5 5 10 11 8 8 7 9 12 14 13 17 14 12 10 9 12 12 10 9 7 6 6 6 7 6 6
2 2 2 2 2 1 2 2 2 2 2 2 2 2 2 2 2 2 6 5 6 8 10 10 5 6 4 4 5 6 6 6 6 8 11 10 12 11 14 12 13 11 10 11 11 9 8 7 6 6 6 6 6 7
3 3 3 3 2 2 2 2 2 2 2 2 2 2 2 2 1 2 3 3 3 6 10 10 8 6 5 4 4 4 5 6 8 9 10 11 11 12 12 12 13 10 11 13 13 8 9 8 6 6 7 8 7 8
3 3 3 3 3 2 1 2 2 2 2 2 2 2 2 2 2 4 7 3 4 3 8 12 8 7 5 3 4 4 5 5 7 8 8 8 7 9 13 15 10 8 6 6 8 6 7 6 7 7 8 7 5 7
3 3 3 3 3 2 2 2 2 1 2 2 2 1 1 2 5 6 6 4 2 3 8 11 10 5 4 4 4 5 5 6 7 8 9 9 9 8 11 12 10 9 8 7 6 7 8 7 9 7 7 7 7 9
2 2 3 2 2 2 1 1 2 1 2 1 1 2 1 1 3 5 4 2 2 5 6 10 10 8 4 7 8 5 8 7 7 8 8 10 10 9 12 11 9 8 7 6 6 6 7 7 8 8 7 7 8 9
2 2 2 2 2 2 2 1 1 1 1 0 0 1 2 3 5 4 -0 1 2 4 8 8 11 12 5 7 6 7 7 10 7 10 9 9 12 12 11 10 8 6 7 7 6 6 8 8 8 8 8 8 9 10
2 2 3 2 2 2 2 1 1 1 1 1 2 4 7 5 1 1 4 6 6 6 7 9 8 10 7 7 11 9 8 10 12 10 8 12 13 9 8 7 6 6 5 6 7 7 9 9 8 8 8 9 9 10
2 2 3 2 2 2 2 1 1 1 1 3 6 7 4 2 5 7 9 9 9 10 8 9 9 10 6 10 9 7 10 10 13 11 11 12 13 8 6 6 6 5 5 5 6 8 8 8 8 8 9 10 10 12
2 2 2 2 2 2 2 1 1 3 4 4 5 4 4 6 8 10 11 9 10 12 9 10 9 9 8 7 9 8 11 10 13 9 11 14 10 7 6 6 5 6 6 6 6 7 7 7 8 9 10 11 12 13
3 3 3 2 2 2 1 2 2 2 2 4 6 8 9 10 13 13 14 11 11 9 8 9 10 9 9 8 11 11 13 13 8 12 13 11 9 7 6 5 6 6 6 6 7 7 7 8 9 10 11 12 13 13
3 3 2 2 2 2 2 2 2 3 4 7 9 12 11 12 11 11 10 10 8 7 7 7 8 10 10 11 11 13 11 10 14 15 14 11 8 7 5 6 6 7 7 8 9 9 10 10 11 11 12 12 13 14
3 3 2 2 2 2 2 2 2 3 5 8 8 12 10 8 7 7 6 7 6 7 8 8 9 9 11 11 10 11 12 14 13 14 10 8 8 7 6 6 7 8 9 9 9 10 10 10 11 13 13 13 13 14
3 3 3 2 2 2 2 2 3 4 6 7 8 10 9 8 8 9 7 7 7 7 7 8 10 11 11 11 12 13 14 15 12 9 9 8 7 7 8 6 6 6 8 8 9 9 9 11 12 13 13 13 13 14
3 4 2 2 2 2 2 4 5 7 8 8 9 9 9 9 8 8 6 6 6 8 10 10 11 12 10 12 13 11 12 10 8 9 8 7 8 9 7 6 6 6 7 8 8 8 9 10 11 12 14 14 13 14
4 3 2 2 2 3 5 5 6 8 10 9 11 10 6 6 7 6 6 7 7 7 9 10 8 11 12 13 12 9 8 7 8 9 7 7 8 7 7 8 7 6 7 8 9 9 9 10 11 12 14 14 14 14
4 3 3 2 3 5 7 7 7 10 10 9 9 8 7 6 5 5 6 6 6 6 7 8 10 11 11 9 8 8 7 8 9 9 7 8 8 7 7 7 7 9 8 9 9 9 10 9 10 11 11 13 15 15
3 3 3 2 3 6 8 8 6 9 11 8 7 8 8 7 5 5 6 7 7 9 9 10 11 8 9 7 6 6 5 7 8 10 10 9 8 7 8 9 9 9 10 10 10 10 10 10 10 10 11 11 12 14
4 3 2 3 5 5 7 8 8 9 9 9 6 7 8 6 8 7 7 6 8 9 10 9 7 5 5 4 4 4 5 6 8 8 9 10 9 9 9 9 9 10 11 11 11 11 10 11 10 10 11 11 11 11
3 2 4 4 6 6 7 6 7 6 8 8 7 7 9 9 8 7 6 8 8 8 8 8 7 6 5 5 5 6 5 6 6 7 8 9 10 10 9 9 9 11 11 11 11 11 11 11 10 11 11 11 11 12
3 3 5 5 7 9 8 5 7 8 9 8 7 9 9 9 8 5 9 8 6 4 4 5 4 5 4 4 4 5 6 7 8 8 9 10 10 9 9 9 9 10 11 12 11 11 11 12 11 11 11 11 12 12
3 6 7 8 8 9 7 7 7 7 7 8 9 10 9 8 7 8 10 8 7 6 8 7 5 5 4 5 6 7 7 7 9 8 9 8 9 10 9 9 9 9 10 11 11 11 11 11 11 11 11 11 12 13
9 10 9 11 7 8 9 9 8 9 10 9 9 9 9 7 10 10 10 9 9 9 9 9 8 7 5 5 6 7 7 8 9 9 9 8 9 10 10 9 9 9 8 10 11 11 12 11 11 11 12 12 12 12
10 8 10 8 8 9 9 10 9 9 9 9 9 8 7 9 11 12 11 11 10 9 10 10 10 9 6 5 6 7 7 7 8 10 9 9 8 10 11 11 11 11 10 10 10 10 11 11 11 11 12 12 13 12
12 11 8 6 7 7 8 7 7 8 10 11 9 9 10 12 12 12 10 10 11 10 10 10 9 9 7 6 4 4 6 7 8 9 9 9 9 9 9 10 10 11 9 9 9 10 10 10 11 11 11 11 11 11
9 8 10 8 8 7 9 9 9 10 9 8 8 11 12 13 14 12 11 10 10 10 9 9 8 7 6 5 4 6 7 7 8 8 9 10 10 10 10 10 11 12 10 9 9 9 10 10 10 10 11 11 11 10
9 8 8 10 8 8 8 9 10 9 8 9 10 12 13 12 11 11 11 10 10 10 10 10 8 6 4 4 4 7 8 8 9 11 12 13 12 11 10 11 11 11 11 11 13 11 10 10 10 10 10 11 11 11
8 7 9 9 10 11 10 8 9 8 8 9 11 11 12 12 11 11 11 11 12 12 11 9 8 9 9 7 7 7 7 7 7 9 11 12 11 10 10 11 11 11 11 11 11 11 12 10 11 10 11 12 12 13
7 7 8 9 10 9 8 8 8 8 8 10 9 12 13 12 11 12 12 11 11 11 11 10 10 10 11 10 10 9 8 8 7 7 7 8 9 9 9 9 10 10 10 10 10 10 11 12 12 13 13 13 14 14
9 9 9 11 10 9 8 8 9 9 9 10 10 10 11 12 14 13 12 11 12 12 12 11 11 11 10 11 11 11 12 11 10 7 7 8 9 9 9 9 9 9 9 10 10 10 11 12 13 14 15 15 15 15
9 8 9 9 11 10 9 9 9 11 11 12 12 11 13 14 16 14 13 11 11 12 12 11 11 10 10 10 10 10 11 11 11 12 12 11 11 10 9 9 9 9 10 11 12 12 13 13 14 15 15 15 15 15